TimeEDT,TemperatureF,Dew PointF,Humidity,Sea Level PressureIn,VisibilityMPH,Wind Direction,Wind SpeedMPH,Gust SpeedMPH,PrecipitationIn,Events,Conditions,WindDirDegrees,DateUTC
12:52 AM,63.0,61.0,93,29.90,8.0,North,-9999.0,-,N/A,,Clear,0,2013-07-23 04:52:00
1:52 AM,62.1,61.0,96,29.88,8.0,North,-9999.0,-,N/A,,Clear,0,2013-07-23 05:52:00
2:52 AM,63.0,62.1,97,29.86,8.0,North,-9999.0,-,N/A,,Mostly Cloudy,0,2013-07-23 06:52:00
3:52 AM,63.0,62.1,97,29.84,6.0,North,-9999.0,-,0.00,Rain,Light Rain,0,2013-07-23 07:52:00
4:52 AM,63.0,62.1,97,29.82,6.0,North,-9999.0,-,0.01,Rain,Light Rain,0,2013-07-23 08:52:00
5:52 AM,62.1,61.0,96,29.81,3.0,North,-9999.0,-,0.05,Rain,Light Rain,0,2013-07-23 09:52:00
5:59 AM,62.6,60.8,94,29.82,2.0,North,-9999.0,-,0.01,Rain,Light Rain,0,2013-07-23 09:59:00
6:11 AM,62.6,62.6,100,29.81,4.0,North,-9999.0,-,0.01,Rain,Light Rain,0,2013-07-23 10:11:00
6:52 AM,63.0,62.1,97,29.80,5.0,North,-9999.0,-,0.04,Rain,Light Rain,0,2013-07-23 10:52:00
7:52 AM,63.0,62.1,97,29.78,6.0,North,-9999.0,-,0.04,Rain,Light Rain,0,2013-07-23 11:52:00
8:17 AM,64.4,60.8,88,29.78,4.0,North,3.5,-,0.02,Rain,Light Rain,350,2013-07-23 12:17:00
8:36 AM,64.4,62.6,94,29.77,5.0,Calm,Calm,-,0.03,Rain,Light Rain,0,2013-07-23 12:36:00
8:43 AM,64.4,62.6,94,29.77,5.0,Calm,Calm,-,0.04,Rain,Light Rain,0,2013-07-23 12:43:00
8:52 AM,64.0,62.1,93,29.75,6.0,Calm,Calm,-,0.04,Rain,Light Rain,0,2013-07-23 12:52:00
9:09 AM,64.4,62.6,94,29.76,5.0,Calm,Calm,-,0.01,Rain,Light Rain,0,2013-07-23 13:09:00
9:30 AM,64.4,62.6,94,29.75,4.0,NW,3.5,-,0.03,Rain,Light Rain,320,2013-07-23 13:30:00
9:52 AM,64.0,63.0,96,29.73,3.0,Calm,Calm,-,0.06,Rain,Rain,0,2013-07-23 13:52:00
9:59 AM,64.4,62.6,94,29.73,4.0,North,3.5,-,0.01,Rain,Light Rain,350,2013-07-23 13:59:00
10:06 AM,64.4,62.6,94,29.72,4.0,North,3.5,-,0.02,Rain,Light Rain,350,2013-07-23 14:06:00
10:26 AM,66.2,62.6,88,29.71,7.0,Calm,Calm,-,0.02,Rain,Light Rain,0,2013-07-23 14:26:00
10:52 AM,66.0,63.0,90,29.70,8.0,Calm,Calm,-,0.03,Rain,Light Rain,0,2013-07-23 14:52:00
11:16 AM,66.2,64.4,94,29.70,2.0,Calm,Calm,-,0.02,Rain,Rain,0,2013-07-23 15:16:00
11:23 AM,64.4,64.4,100,29.70,1.2,Calm,Calm,-,0.05,Rain,Heavy Rain,0,2013-07-23 15:23:00
11:38 AM,66.2,64.4,94,29.69,2.0,Calm,Calm,-,0.08,Rain,Light Rain,0,2013-07-23 15:38:00
11:48 AM,66.2,64.4,94,29.69,6.0,Calm,Calm,-,0.08,Rain,Light Rain,0,2013-07-23 15:48:00
11:52 AM,66.9,64.0,90,29.68,6.0,NNE,3.5,-,0.08,Rain,Light Rain,20,2013-07-23 15:52:00
12:08 PM,66.2,64.4,94,29.68,1.8,Calm,Calm,-,0.01,Rain,Rain,0,2013-07-23 16:08:00
12:22 PM,66.2,64.4,94,29.68,1.0,Calm,Calm,-,0.05,Rain,Rain,0,2013-07-23 16:22:00
12:29 PM,66.2,64.4,94,29.68,1.0,Calm,Calm,-,0.07,Rain,Rain,0,2013-07-23 16:29:00
12:48 PM,66.2,64.4,94,29.67,1.5,Calm,Calm,-,0.10,Rain,Light Rain,0,2013-07-23 16:48:00
12:52 PM,66.9,64.9,93,29.66,1.8,Calm,Calm,-,0.10,Rain,Light Rain,0,2013-07-23 16:52:00
1:05 PM,66.2,64.4,94,29.66,1.0,Calm,Calm,-,0.03,Rain,Rain,0,2013-07-23 17:05:00
1:08 PM,66.2,64.4,94,29.66,0.8,Calm,Calm,-,0.03,Rain,Rain,0,2013-07-23 17:08:00
1:15 PM,66.2,64.4,94,29.66,1.0,Calm,Calm,-,0.05,Rain,Rain,0,2013-07-23 17:15:00
1:32 PM,66.2,64.4,94,29.65,1.5,Calm,Calm,-,0.08,Rain,Rain,0,2013-07-23 17:32:00
1:44 PM,68.0,66.2,94,29.64,1.8,Calm,Calm,-,0.10,Rain,Light Rain,0,2013-07-23 17:44:00
1:47 PM,66.2,66.2,100,29.63,2.0,Calm,Calm,-,0.10,Rain,Light Rain,0,2013-07-23 17:47:00
1:52 PM,68.0,66.0,93,29.63,2.5,Calm,Calm,-,0.11,Rain,Light Rain,0,2013-07-23 17:52:00
1:59 PM,68.0,66.2,94,29.63,3.0,Calm,Calm,-,0.00,Rain,Light Rain,0,2013-07-23 17:59:00
2:15 PM,68.0,66.2,94,29.63,6.0,Calm,Calm,-,0.01,Rain,Light Rain,0,2013-07-23 18:15:00
2:32 PM,69.8,64.4,83,29.63,10.0,Calm,Calm,-,0.01,Rain,Light Rain,0,2013-07-23 18:32:00
2:47 PM,69.8,66.2,88,29.62,10.0,Calm,Calm,-,0.01,Rain,Light Rain,0,2013-07-23 18:47:00
2:52 PM,71.1,66.0,84,29.61,10.0,Calm,Calm,-,0.01,Rain,Light Rain,0,2013-07-23 18:52:00
3:07 PM,69.8,66.2,88,29.62,10.0,Calm,Calm,-,N/A,,Overcast,0,2013-07-23 19:07:00
3:52 PM,70.0,66.0,87,29.61,10.0,NNW,5.8,-,N/A,,Overcast,330,2013-07-23 19:52:00
4:31 PM,69.8,66.2,88,29.61,4.0,Calm,Calm,-,0.03,Rain,Light Rain,0,2013-07-23 20:31:00
4:52 PM,71.1,66.0,84,29.60,10.0,NNW,3.5,-,0.03,Rain,Light Rain,340,2013-07-23 20:52:00
5:52 PM,73.0,68.0,84,29.58,10.0,Calm,Calm,-,N/A,,Overcast,0,2013-07-23 21:52:00
6:52 PM,73.9,66.0,76,29.57,10.0,Calm,Calm,-,N/A,,Mostly Cloudy,0,2013-07-23 22:52:00
7:52 PM,71.1,68.0,90,29.59,10.0,Calm,Calm,-,N/A,,Mostly Cloudy,0,2013-07-23 23:52:00
8:10 PM,69.8,68.0,94,29.60,10.0,Calm,Calm,-,N/A,,Overcast,0,2013-07-24 00:10:00
8:50 PM,68.0,66.2,94,29.60,10.0,Calm,Calm,-,N/A,,Mostly Cloudy,0,2013-07-24 00:50:00
8:52 PM,68.0,66.0,93,29.59,10.0,Calm,Calm,-,N/A,,Mostly Cloudy,0,2013-07-24 00:52:00
9:43 PM,66.2,66.2,100,29.61,10.0,Calm,Calm,-,N/A,,Overcast,0,2013-07-24 01:43:00
9:52 PM,66.0,64.9,96,29.60,10.0,Calm,Calm,-,N/A,,Overcast,0,2013-07-24 01:52:00
10:22 PM,66.2,64.4,94,29.61,10.0,Calm,Calm,-,N/A,,Scattered Clouds,0,2013-07-24 02:22:00
10:29 PM,62.6,62.6,100,29.60,2.5,Calm,Calm,-,N/A,,Scattered Clouds,0,2013-07-24 02:29:00
10:31 PM,62.6,62.6,100,29.60,1.0,Calm,Calm,-,N/A,,Mostly Cloudy,0,2013-07-24 02:31:00
10:33 PM,62.6,62.6,100,29.60,0.8,Calm,Calm,-,N/A,,Mostly Cloudy,0,2013-07-24 02:33:00
10:42 PM,64.4,62.6,94,29.60,0.2,Calm,Calm,-,N/A,Fog,Fog,0,2013-07-24 02:42:00
10:52 PM,64.0,64.0,100,29.60,0.2,Calm,Calm,-,N/A,Fog,Fog,0,2013-07-24 02:52:00
11:01 PM,64.4,64.4,100,29.61,0.2,Calm,Calm,-,N/A,Fog,Fog,0,2013-07-24 03:01:00
11:29 PM,64.4,64.4,100,29.61,0.2,Calm,Calm,-,N/A,Fog,Fog,0,2013-07-24 03:29:00
11:38 PM,64.4,64.4,100,29.61,0.2,Calm,Calm,-,N/A,Fog,Fog,0,2013-07-24 03:38:00
11:47 PM,64.4,64.4,100,29.61,0.2,Calm,Calm,-,N/A,Fog,Fog,0,2013-07-24 03:47:00
11:52 PM,64.0,64.0,100,29.60,0.2,Calm,Calm,-,N/A,Fog,Fog,0,2013-07-24 03:52:00